EHI
0 0 0 0 0 0 0 0 0 0 0 0 0 0 0 0 0 0 0 0 2 6 9 15 23 25 19 14 12 10 6 4 2 1 0 0 0 0 0 0 0 0 0 0
0 0 0 0 0 0 0 0 0 0 0 0 0 0 0 0 0 0 0 0 1 3 7 14 21 24 21 19 17 12 7 3 1 0 0 0 0 0 0 0 0 0 0 0
0 0 0 0 0 0 0 0 0 0 0 0 0 0 0 0 0 0 0 0 0 2 6 11 17 22 24 23 20 14 8 3 1 0 0 0 0 0 0 0 0 0 0 0
0 0 0 0 0 0 0 0 0 0 0 0 0 0 0 0 0 0 0 0 0 1 4 8 12 18 21 18 16 13 8 3 1 0 0 0 0 0 0 0 0 0 0 0
0 0 0 0 0 0 0 0 0 0 0 0 0 0 0 0 0 0 0 0 0 1 3 9 15 18 15 10 8 8 5 2 0 0 0 0 0 0 0 0 0 0 0 0
0 0 0 0 0 0 0 0 0 0 0 0 0 0 0 0 0 0 0 1 1 2 7 19 31 31 19 8 3 2 1 0 0 0 0 0 0 0 0 0 0 0 0 0
0 0 0 0 0 0 0 0 0 0 0 0 0 0 0 0 0 0 0 1 2 4 16 35 50 49 31 13 5 1 0 0 0 0 0 0 0 0 0 0 0 0 0 0
0 0 0 0 0 0 0 0 0 0 0 0 0 0 0 0 0 0 0 0 1 6 21 43 57 57 42 23 11 4 2 2 2 1 0 0 0 0 0 0 0 0 0 0
0 0 0 0 0 0 0 0 0 0 0 0 0 0 0 0 0 0 0 0 1 5 17 35 50 53 45 32 17 7 4 5 5 2 0 0 0 0 0 0 0 0 0 0
0 0 0 0 0 0 0 0 0 0 0 0 0 0 0 0 0 0 0 0 1 3 9 20 33 41 43 34 19 8 5 6 5 2 0 0 0 0 0 0 0 0 0 0
0 0 0 0 0 0 0 0 0 0 0 0 0 0 0 0 0 0 0 0 0 1 4 9 18 29 35 31 18 7 4 4 3 1 0 0 0 0 0 0 0 0 0 0
0 0 0 0 0 0 0 0 0 0 0 0 0 0 0 0 0 0 0 0 0 0 1 3 8 16 24 23 14 6 2 1 1 0 0 0 0 0 0 0 0 0 0 0
0 0 0 0 0 0 0 0 0 0 0 0 0 0 0 0 0 0 0 0 0 0 0 1 2 5 9 12 10 5 1 0 0 0 0 0 0 0 0 0 0 0 0 0
0 0 0 0 0 0 0 0 0 0 0 0 0 0 0 0 0 0 0 0 0 0 0 0 0 0 1 3 5 3 1 0 0 0 0 0 0 0 0 0 0 0 0 0
0 0 0 0 0 0 0 0 0 0 0 0 0 0 0 0 0 0 0 0 0 0 0 0 0 0 0 1 1 1 0 0 0 0 0 0 0 0 0 0 0 0 0 0
0 0 0 0 0 0 0 0 0 0 0 0 0 0 0 0 0 0 0 0 0 0 0 0 0 0 0 0 0 0 0 0 0 0 0 0 0 0 0 0 0 0 0 0
0 0 0 0 0 0 0 0 0 0 0 0 0 0 0 0 0 0 0 0 0 0 0 0 0 0 0 0 0 0 0 0 0 0 0 0 0 0 0 0 0 0 0 0
0 0 0 0 0 0 0 0 0 0 0 0 0 0 0 0 0 0 0 0 0 0 0 0 0 0 0 0 0 0 0 0 0 0 0 0 0 0 0 0 0 0 0 0
0 0 0 0 0 0 0 0 0 0 0 0 0 0 0 0 0 0 0 0 0 0 0 0 0 0 0 0 0 0 0 0 0 0 0 0 0 0 0 0 0 0 0 0
0 0 0 0 0 0 0 0 0 0 0 0 0 0 0 0 0 0 0 0 0 0 0 0 0 0 0 0 0 0 0 0 0 0 0 0 0 0 0 0 0 0 0 0
0 0 0 0 0 0 0 0 0 0 0 0 0 0 0 0 0 0 0 0 0 0 0 0 0 0 0 0 0 0 0 0 0 0 0 0 0 0 0 0 0 0 0 0
0 0 0 0 0 0 0 0 0 0 0 0 0 0 0 0 0 0 0 0 0 0 0 0 0 0 0 0 0 0 0 0 0 0 0 0 0 0 0 0 0 0 0 0
0 0 0 0 0 0 0 0 0 0 0 0 0 0 0 0 0 0 0 0 0 0 0 0 0 0 0 0 0 0 0 0 0 0 0 0 0 0 0 0 0 0 0 0
0 0 0 0 0 0 0 0 0 0 0 0 0 0 0 0 0 0 0 0 0 0 0 0 0 0 0 0 0 0 0 0 0 0 0 0 0 0 0 0 0 0 0 0
0 0 0 0 0 0 0 0 0 0 0 0 0 0 0 0 0 0 0 0 0 0 0 0 0 0 0 0 0 0 0 0 0 0 0 0 0 0 0 0 0 0 0 0
0 0 0 0 0 0 0 0 0 0 0 0 0 0 0 0 0 0 0 0 0 0 0 0 0 0 0 0 0 0 0 0 0 0 0 0 0 0 0 0 0 0 0 0
0 0 0 0 0 0 0 0 0 0 0 0 0 0 0 0 0 0 0 0 0 0 0 0 0 0 0 0 0 0 0 0 0 0 0 0 0 0 0 0 0 0 0 0
Wind_Speed
14 17 19 20 19 18 16 16 16 17 17 15 12 12 11 10 9 10 9 7 5 3 3 3 4 4 4 3 3 2 3 3 2 2 2 1 2 2 2 3 3 3 3 4
16 18 19 20 18 16 13 12 13 14 14 14 14 13 13 12 13 12 10 9 6 4 2 3 4 4 4 4 4 4 4 4 4 4 4 3 2 2 1 2 2 2 3 4
15 17 18 14 10 8 8 10 12 13 14 16 16 16 15 14 14 13 11 8 6 5 3 2 3 4 4 4 4 5 5 5 5 5 5 5 5 4 2 1 1 1 3 5
12 14 14 6 10 10 8 10 15 16 17 18 18 17 15 14 12 12 11 9 7 5 4 3 3 3 4 5 5 6 6 6 6 6 6 6 6 5 4 2 2 1 3 4
9 12 13 7 13 11 8 6 18 17 18 20 21 19 15 15 16 13 12 9 6 5 5 4 4 4 5 6 6 7 7 7 6 7 7 7 7 6 5 3 3 2 3 4
10 13 13 9 14 13 10 4 18 19 19 21 21 16 14 18 18 15 12 9 7 6 6 4 5 5 6 7 7 7 7 6 6 7 7 8 7 6 5 4 4 4 4 4
11 13 5 11 14 13 7 10 19 19 20 19 17 16 18 21 19 16 13 11 8 6 5 5 6 6 7 8 7 6 6 5 6 7 7 7 7 6 6 6 5 4 5 5
8 10 3 16 12 10 9 13 15 17 18 18 18 19 20 20 20 20 17 14 11 6 5 6 7 8 9 8 7 6 5 6 7 7 8 8 8 7 7 6 6 5 5 5
5 5 8 13 11 10 11 13 14 16 17 18 19 20 20 19 18 18 19 17 14 11 8 6 7 9 10 9 7 6 6 6 7 8 7 7 9 9 8 7 7 7 7 7
3 8 8 10 12 12 12 13 15 16 17 17 18 19 19 17 15 16 17 17 16 15 11 8 8 9 10 9 8 7 7 7 7 7 8 8 7 8 8 8 8 8 7 7
5 9 10 11 15 15 16 17 18 18 18 18 19 19 18 16 15 14 15 15 15 15 14 13 10 9 10 10 9 8 8 7 8 8 8 7 8 6 8 7 7 7 7 7
6 8 9 11 13 16 17 18 19 20 21 20 19 19 18 16 15 14 14 14 14 15 16 16 14 11 8 8 10 9 9 8 8 8 7 8 8 6 4 4 7 7 6 5
4 8 9 13 16 17 18 20 21 21 22 21 20 18 18 16 15 15 15 15 14 14 15 16 16 13 10 8 9 11 10 9 8 8 8 9 9 9 7 5 5 6 7 10
7 10 13 15 18 19 21 22 22 22 22 21 19 19 19 18 18 17 17 16 15 14 14 14 15 14 10 8 8 11 12 11 9 8 8 9 9 9 9 10 9 6 5 11
10 12 15 18 19 20 21 22 23 22 22 21 20 18 18 18 19 19 18 16 14 15 14 14 14 14 11 9 8 10 12 10 10 9 9 9 9 10 10 11 11 11 9 7
15 16 18 19 21 22 23 24 23 22 22 22 21 20 19 19 19 19 18 17 15 15 14 14 14 12 11 9 7 7 10 14 11 10 10 10 9 10 9 9 10 11 12 11
17 18 20 21 22 23 23 23 23 22 22 22 22 21 21 21 20 20 19 18 16 14 14 13 13 11 10 9 8 6 9 12 14 11 10 10 9 10 9 9 9 10 11 14
17 19 20 21 22 23 23 23 23 23 22 22 23 21 20 20 20 20 20 19 18 16 14 12 11 9 9 9 8 7 7 9 11 12 10 9 9 9 9 9 10 11 9 13
20 21 22 22 22 21 21 22 22 22 22 21 22 21 20 20 20 20 19 19 18 17 14 12 10 8 8 9 8 7 8 8 9 11 11 10 10 9 9 9 9 9 10 12
21 22 23 23 23 22 21 21 21 21 20 21 21 21 21 20 19 20 19 17 13 12 12 11 10 8 8 8 7 6 8 8 9 10 10 10 10 10 10 10 9 9 9 11
22 23 23 23 22 22 21 21 20 21 20 20 20 21 20 19 18 17 16 15 14 13 12 12 9 7 6 5 5 5 6 7 7 8 10 10 10 10 10 10 9 9 9 10
21 22 23 23 22 22 20 19 19 20 20 20 21 22 21 19 19 17 16 13 14 13 10 9 8 7 6 5 5 5 6 6 7 7 8 9 9 9 10 9 9 9 8 8
20 21 21 22 22 21 21 19 18 18 19 20 21 21 19 17 14 13 14 12 12 12 10 10 10 8 7 6 5 5 6 7 7 6 6 7 8 8 9 10 8 8 8 8
20 20 21 20 20 20 20 20 19 17 18 19 18 19 18 15 13 11 12 13 14 15 12 11 11 11 10 7 6 6 6 6 6 6 5 6 7 8 8 8 9 9 8 9
20 20 20 20 18 16 17 18 19 19 19 16 18 19 15 12 13 13 13 14 15 14 12 12 13 13 10 8 7 6 6 6 6 5 5 5 6 6 7 8 8 8 8 8
17 16 15 16 14 13 13 13 14 14 15 16 15 15 14 13 14 13 11 13 16 14 12 9 9 10 9 9 8 8 8 7 8 8 7 6 6 6 6 7 9 8 7 7
18 16 13 14 14 14 14 14 15 15 15 16 17 17 16 14 13 12 13 11 10 10 9 8 8 8 9 9 9 8 8 8 7 7 7 7 6 6 6 7 6 6 6 6
Wind_Direction
294 299 299 297 295 293 289 290 292 301 307 322 337 337 336 334 327 318 312 305 290 257 230 229 235 236 245 241 221 219 224 229 192 178 160 133 105 83 60 45 57 46 35 36
289 290 293 293 291 289 294 305 312 318 326 347 351 350 347 342 331 319 313 311 306 296 264 239 238 243 244 222 206 211 223 221 205 193 183 175 167 138 105 65 44 42 48 51
293 298 297 291 303 314 326 341 348 345 350 355 354 353 346 337 326 318 314 315 315 308 282 245 240 233 233 228 206 211 223 226 210 199 194 187 184 169 170 150 117 79 77 77
284 288 283 309 3 356 351 19 15 4 359 355 348 341 331 331 343 341 331 317 310 302 281 249 234 219 220 228 219 217 222 226 216 202 197 186 186 183 183 179 167 129 103 99
284 287 291 341 25 8 347 13 29 5 354 348 341 330 326 342 341 331 319 308 294 282 268 242 221 219 222 224 226 226 226 221 213 202 197 188 187 183 180 174 171 163 142 122
278 291 298 1 4 347 314 303 16 355 348 344 340 331 327 332 325 316 309 297 277 264 260 233 210 207 219 230 231 231 230 217 202 195 194 191 186 179 175 174 180 177 155 141
265 273 287 23 10 355 341 344 349 349 347 345 339 326 323 326 325 321 316 309 293 262 246 231 209 201 215 229 232 230 224 205 194 190 189 186 179 176 175 177 178 177 157 148
293 291 347 22 33 35 355 342 346 345 343 338 332 329 331 333 333 332 328 324 315 296 263 232 210 206 214 222 225 225 215 196 188 186 194 184 175 176 177 175 170 167 158 153
347 42 62 47 44 21 359 347 343 339 335 333 330 328 328 330 331 332 334 335 331 316 291 260 221 208 218 215 212 217 213 201 192 192 195 179 175 176 175 177 180 176 175 174
349 62 46 49 24 7 354 342 335 332 328 326 323 322 322 323 326 329 329 331 330 326 317 300 264 228 216 210 205 210 210 201 190 192 191 183 179 179 182 185 189 185 186 182
360 17 351 4 360 348 337 330 324 319 315 315 315 315 316 316 319 322 322 323 325 326 321 311 300 261 225 206 199 205 206 202 196 197 194 186 184 183 191 190 193 187 189 181
9 359 328 325 327 322 317 313 311 309 309 310 309 308 310 310 311 311 313 316 317 320 321 318 309 290 254 215 202 200 203 204 201 198 190 186 180 163 76 134 148 152 158 168
320 309 300 299 301 302 302 303 305 306 307 308 307 307 308 308 308 308 307 308 311 312 313 311 308 300 283 247 215 202 201 200 201 198 190 187 183 175 161 119 102 120 136 141
295 295 296 300 303 304 303 304 303 303 304 305 307 309 309 309 309 309 306 304 303 303 304 303 304 301 297 281 240 212 204 203 202 199 192 191 189 186 180 175 173 162 132 140
301 300 299 301 302 304 307 308 309 308 310 309 309 308 308 308 307 306 304 303 300 298 299 302 299 300 298 286 267 231 212 205 201 202 196 193 191 191 191 187 181 174 156 146
311 309 307 309 312 314 314 315 315 314 314 313 313 311 309 306 304 304 304 303 300 297 295 296 293 295 301 292 281 254 225 211 199 199 201 196 195 194 192 188 184 177 171 166
312 315 318 317 317 317 317 318 316 314 315 314 312 311 309 308 307 305 304 303 299 293 288 284 285 290 299 297 287 261 236 213 202 203 204 199 195 196 191 187 186 183 178 170
313 314 316 318 319 319 319 319 318 317 315 312 311 309 307 306 305 305 305 302 299 294 288 282 278 280 287 287 285 270 247 222 201 204 205 200 194 193 195 191 191 189 180 165
324 323 323 322 321 319 319 319 317 316 314 313 312 310 307 306 306 304 303 301 299 295 293 291 283 274 278 284 281 270 253 234 207 200 204 197 195 195 197 198 196 192 181 166
324 324 323 321 321 320 317 316 316 314 314 313 311 309 307 306 306 305 303 298 292 290 292 292 287 275 273 283 284 264 258 242 216 196 198 202 198 196 197 200 199 195 186 174
324 323 322 321 320 318 316 316 314 312 314 314 311 308 306 306 306 304 302 299 297 296 295 289 276 266 262 272 278 265 262 256 231 200 193 198 197 195 199 201 200 197 191 185
322 321 320 319 319 318 318 316 313 314 316 315 313 310 309 308 306 302 294 291 292 292 291 287 275 262 253 263 263 266 264 263 246 217 196 195 194 193 197 201 202 198 194 189
318 317 318 319 319 318 317 316 318 319 317 316 314 311 308 304 301 296 293 291 292 290 287 284 278 261 248 254 252 251 256 257 253 235 207 195 195 192 194 200 204 200 192 192
317 318 319 319 320 319 319 321 322 320 317 315 311 310 309 305 298 290 285 284 281 281 279 275 264 246 238 246 246 242 242 244 244 239 223 207 202 196 195 197 202 205 200 198
320 320 320 324 322 321 321 323 323 321 319 315 311 311 309 301 296 294 289 286 283 277 275 267 248 233 229 236 236 238 239 237 234 228 220 216 211 200 196 198 199 199 199 199
324 321 324 321 322 321 324 324 320 317 316 314 312 311 309 304 297 293 287 283 280 274 269 263 245 226 228 232 231 231 233 230 222 223 218 212 215 212 203 201 198 198 196 197
325 325 322 324 325 327 326 322 318 317 315 313 313 312 309 306 303 298 291 284 279 272 264 258 248 232 229 227 225 225 228 227 219 214 215 212 211 212 208 199 197 194 194 193